| time (UTC) | temp F | wind direction | speed knots | gust knots | rain 1hr in | rain 24hr in | rain mn in | humidity % | barometer mb |
| 20260506070503 | 49 | 61 | 4.3 | 10.4 | 0.00 | 0.00 | 0.00 | 77 | 1014.0 |
| 20260506062503 | 49 | 44 | 5.2 | 13.0 | 0.00 | 0.00 | 0.00 | 76 | 1013.6 |
| 20260506062003 | 49 | 46 | 6.1 | 13.0 | 0.00 | 0.00 | 0.00 | 76 | 1013.7 |
| 20260506061503 | 49 | 44 | 6.1 | 15.6 | 0.00 | 0.00 | 0.00 | 76 | 1013.8 |
| 20260506061024 | 49 | 38 | 6.1 | 15.6 | 0.00 | 0.00 | 0.00 | 76 | 1013.6 |
| 20260506060503 | 49 | 46 | 7.8 | 15.6 | 0.00 | 0.00 | 0.00 | 75 | 1013.4 |
| 20260506051003 | 50 | 44 | 7.0 | 17.4 | 0.00 | 0.00 | 0.00 | 73 | 1013.3 |
| 20260506050503 | 50 | 41 | 5.2 | 12.2 | 0.00 | 0.00 | 0.00 | 73 | 1013.5 |
| 20260506045003 | 50 | 33 | 7.8 | 16.5 | 0.00 | 0.00 | 0.00 | 72 | 1013.6 |
| 20260506044524 | 50 | 36 | 7.0 | 16.5 | 0.00 | 0.00 | 0.00 | 72 | 1013.5 |
| 20260506044003 | 51 | 43 | 6.1 | 16.5 | 0.00 | 0.00 | 0.00 | 72 | 1013.6 |
| 20260506043503 | 51 | 44 | 5.2 | 13.9 | 0.00 | 0.00 | 0.00 | 72 | 1013.6 |
| 20260506043003 | 50 | 38 | 4.3 | 11.3 | 0.00 | 0.00 | 0.00 | 73 | 1013.6 |
| 20260506042503 | 50 | 36 | 4.3 | 11.3 | 0.00 | 0.00 | 0.00 | 73 | 1013.7 |
| 20260506042003 | 50 | 36 | 5.2 | 12.2 | 0.00 | 0.00 | 0.00 | 73 | 1013.8 |
| 20260506041503 | 50 | 40 | 5.2 | 12.2 | 0.00 | 0.00 | 0.00 | 73 | 1013.6 |
| 20260506041003 | 50 | 40 | 5.2 | 9.6 | 0.00 | 0.00 | 0.00 | 72 | 1013.6 |
| 20260506040503 | 51 | 42 | 4.3 | 9.6 | 0.00 | 0.00 | 0.00 | 72 | 1013.5 |
| 20260506040024 | 51 | 47 | 6.1 | 13.9 | 0.00 | 0.00 | 0.00 | 72 | 1013.5 |
| 20260506035503 | 51 | 47 | 7.0 | 17.4 | 0.00 | 0.00 | 0.00 | 72 | 1013.3 |
| 20260506035003 | 51 | 47 | 7.0 | 17.4 | 0.00 | 0.00 | 0.00 | 72 | 1013.2 |
| 20260506034503 | 51 | 45 | 6.1 | 13.0 | 0.00 | 0.00 | 0.00 | 72 | 1013.1 |
| 20260506034003 | 51 | 46 | 7.0 | 14.8 | 0.00 | 0.00 | 0.00 | 72 | 1012.9 |
| 20260506033503 | 51 | 51 | 7.8 | 15.6 | 0.00 | 0.00 | 0.00 | 72 | 1012.9 |
| 20260506033003 | 51 | 50 | 7.0 | 15.6 | 0.00 | 0.00 | 0.00 | 71 | 1012.8 |
| 20260506032503 | 51 | 48 | 7.0 | 13.0 | 0.00 | 0.00 | 0.00 | 72 | 1012.9 |
| 20260506032003 | 51 | 52 | 7.0 | 13.9 | 0.00 | 0.00 | 0.00 | 72 | 1012.8 |
| 20260506031503 | 52 | 54 | 6.1 | 13.9 | 0.00 | 0.00 | 0.00 | 72 | 1012.7 |
| 20260506031003 | 52 | 52 | 7.8 | 19.1 | 0.00 | 0.00 | 0.00 | 71 | 1012.5 |
| 20260506030503 | 52 | 51 | 7.8 | 19.1 | 0.00 | 0.00 | 0.00 | 71 | 1012.4 |
| 20260506030024 | 52 | 53 | 7.0 | 13.0 | 0.00 | 0.00 | 0.00 | 70 | 1012.1 |
| 20260506025503 | 52 | 61 | 6.1 | 13.0 | 0.00 | 0.00 | 0.00 | 69 | 1012.2 |
| 20260506025003 | 52 | 64 | 6.1 | 13.0 | 0.00 | 0.00 | 0.00 | 69 | 1012.0 |
| 20260506024503 | 53 | 56 | 7.8 | 14.8 | 0.00 | 0.00 | 0.00 | 68 | 1011.9 |
| 20260506024003 | 53 | 58 | 7.0 | 14.8 | 0.00 | 0.00 | 0.00 | 68 | 1012.0 |
| 20260506023503 | 53 | 64 | 7.0 | 13.0 | 0.00 | 0.00 | 0.00 | 67 | 1011.8 |
| 20260506023003 | 54 | 61 | 6.1 | 13.0 | 0.00 | 0.00 | 0.00 | 67 | 1011.9 |
| 20260506022503 | 54 | 49 | 6.1 | 13.0 | 0.00 | 0.00 | 0.00 | 66 | 1011.8 |
| 20260506022003 | 54 | 57 | 6.1 | 13.0 | 0.00 | 0.00 | 0.00 | 66 | 1011.8 |
| 20260506021503 | 54 | 61 | 6.1 | 13.0 | 0.00 | 0.00 | 0.00 | 66 | 1011.8 |
| 20260506021003 | 54 | 54 | 6.1 | 13.0 | 0.00 | 0.00 | 0.00 | 65 | 1011.3 |
| 20260506020503 | 55 | 72 | 4.3 | 11.3 | 0.00 | 0.00 | 0.00 | 65 | 1011.4 |
| 20260506020003 | 55 | 76 | 4.3 | 9.6 | 0.00 | 0.00 | 0.00 | 65 | 1011.4 |
| 20260506015503 | 55 | 69 | 4.3 | 10.4 | 0.00 | 0.00 | 0.00 | 65 | 1011.4 |
| 20260506015024 | 55 | 74 | 4.3 | 10.4 | 0.00 | 0.00 | 0.00 | 65 | 1011.2 |
| 20260506014503 | 56 | 61 | 6.1 | 11.3 | 0.00 | 0.00 | 0.00 | 65 | 1011.2 |
| 20260506014024 | 56 | 57 | 6.1 | 11.3 | 0.00 | 0.00 | 0.00 | 65 | 1010.8 |
| 20260506013524 | 56 | 54 | 7.0 | 13.9 | 0.00 | 0.00 | 0.00 | 65 | 1010.7 |
| 20260506013024 | 56 | 50 | 7.0 | 13.9 | 0.00 | 0.00 | 0.00 | 65 | 1010.7 |
| 20260506012524 | 56 | 49 | 6.1 | 12.2 | 0.00 | 0.00 | 0.00 | 65 | 1010.8 |
| 20260506012003 | 56 | 45 | 7.0 | 12.2 | 0.00 | 0.00 | 0.00 | 65 | 1010.8 |
| 20260506011503 | 56 | 47 | 7.0 | 12.2 | 0.00 | 0.00 | 0.00 | 64 | 1010.7 |
| 20260506011003 | 57 | 50 | 6.1 | 12.2 | 0.00 | 0.00 | 0.00 | 65 | 1010.8 |
| 20260506010524 | 57 | 53 | 5.2 | 12.2 | 0.00 | 0.00 | 0.00 | 64 | 1010.5 |
| 20260506010003 | 57 | 53 | 5.2 | 12.2 | 0.00 | 0.00 | 0.00 | 64 | 1010.5 |
| 20260506005524 | 57 | 52 | 5.2 | 12.2 | 0.00 | 0.00 | 0.00 | 64 | 1010.5 |
| 20260506005003 | 57 | 57 | 5.2 | 10.4 | 0.00 | 0.00 | 0.00 | 64 | 1010.6 |
| 20260506004524 | 58 | 57 | 5.2 | 10.4 | 0.00 | 0.00 | 0.00 | 64 | 1010.6 |
| 20260506004003 | 58 | 47 | 4.3 | 12.2 | 0.00 | 0.00 | 0.00 | 64 | 1010.3 |
| 20260506003503 | 58 | 42 | 5.2 | 13.9 | 0.00 | 0.00 | 0.00 | 64 | 1010.2 |
| 20260506003003 | 58 | 41 | 6.1 | 14.8 | 0.00 | 0.00 | 0.00 | 64 | 1010.1 |
| 20260506002503 | 58 | 41 | 7.0 | 14.8 | 0.00 | 0.00 | 0.00 | 64 | 1010.1 |
| 20260506002003 | 58 | 44 | 5.2 | 11.3 | 0.00 | 0.00 | 0.00 | 64 | 1010.0 |
| 20260506001503 | 58 | 49 | 6.1 | 16.5 | 0.00 | 0.00 | 0.00 | 64 | 1010.0 |
| 20260506001003 | 58 | 50 | 7.8 | 16.5 | 0.00 | 0.00 | 0.00 | 64 | 1009.6 |
| 20260506000503 | 58 | 45 | 7.8 | 16.5 | 0.00 | 0.00 | 0.00 | 64 | 1009.6 |
| 20260506000003 | 58 | 39 | 7.0 | 16.5 | 0.00 | 0.00 | 0.00 | 64 | 1009.6 |
| 20260505235503 | 58 | 37 | 7.0 | 15.6 | 0.00 | 0.00 | 0.00 | 64 | 1009.6 |
| 20260505235003 | 58 | 31 | 7.8 | 14.8 | 0.00 | 0.00 | 0.00 | 64 | 1009.6 |
| 20260505234503 | 58 | 27 | 7.0 | 13.0 | 0.00 | 0.00 | 0.00 | 63 | 1009.6 |
| 20260505234003 | 58 | 31 | 7.0 | 13.9 | 0.00 | 0.00 | 0.00 | 63 | 1009.9 |
| 20260505233503 | 58 | 20 | 7.0 | 13.9 | 0.00 | 0.00 | 0.00 | 63 | 1009.7 |
| 20260505233003 | 59 | 18 | 7.0 | 14.8 | 0.00 | 0.00 | 0.00 | 62 | 1009.6 |
| 20260505232503 | 59 | 28 | 7.8 | 14.8 | 0.00 | 0.00 | 0.00 | 62 | 1009.6 |
| 20260505232003 | 59 | 35 | 7.8 | 16.5 | 0.00 | 0.00 | 0.00 | 62 | 1009.5 |
| 20260505231503 | 59 | 41 | 7.8 | 16.5 | 0.00 | 0.00 | 0.00 | 62 | 1009.4 |
| 20260505231024 | 59 | 30 | 7.0 | 14.8 | 0.00 | 0.00 | 0.00 | 61 | 1009.5 |
| 20260505230503 | 60 | 11 | 6.1 | 13.0 | 0.00 | 0.00 | 0.00 | 61 | 1009.7 |
| 20260505230003 | 60 | 19 | 6.1 | 13.0 | 0.00 | 0.00 | 0.00 | 61 | 1009.7 |
| 20260505225524 | 60 | 31 | 6.1 | 13.9 | 0.00 | 0.00 | 0.00 | 61 | 1009.7 |
| 20260505225003 | 60 | 36 | 6.1 | 13.9 | 0.00 | 0.00 | 0.00 | 61 | 1009.8 |
| 20260505224524 | 60 | 34 | 7.0 | 13.9 | 0.00 | 0.00 | 0.00 | 61 | 1009.7 |
| 20260505224003 | 60 | 20 | 7.0 | 12.2 | 0.00 | 0.00 | 0.00 | 61 | 1009.6 |
| 20260505223503 | 60 | 18 | 6.1 | 12.2 | 0.00 | 0.00 | 0.00 | 61 | 1009.7 |
| 20260505223003 | 61 | 10 | 6.1 | 11.3 | 0.00 | 0.00 | 0.00 | 60 | 1010.2 |
| 20260505222524 | 61 | 3 | 7.0 | 13.0 | 0.00 | 0.00 | 0.00 | 60 | 1010.0 |
| 20260505222003 | 61 | 12 | 6.1 | 13.0 | 0.00 | 0.00 | 0.00 | 60 | 1009.9 |
| 20260505221503 | 62 | 7 | 5.2 | 11.3 | 0.00 | 0.00 | 0.00 | 59 | 1009.8 |
| 20260505221003 | 62 | 359 | 4.3 | 9.6 | 0.00 | 0.00 | 0.00 | 59 | 1010.1 |
| 20260505220524 | 62 | 359 | 4.3 | 9.6 | 0.00 | 0.00 | 0.00 | 58 | 1010.1 |
| 20260505220003 | 62 | 1 | 5.2 | 11.3 | 0.00 | 0.00 | 0.00 | 59 | 1010.2 |
| 20260505215503 | 63 | 2 | 5.2 | 12.2 | 0.00 | 0.00 | 0.00 | 58 | 1010.0 |
| 20260505215003 | 63 | 6 | 5.2 | 12.2 | 0.00 | 0.00 | 0.00 | 56 | 1010.3 |
| 20260505214503 | 63 | 356 | 7.0 | 11.3 | 0.00 | 0.00 | 0.00 | 56 | 1010.2 |
| 20260505214003 | 64 | 3 | 7.0 | 11.3 | 0.00 | 0.00 | 0.00 | 56 | 1010.1 |
| 20260505213524 | 64 | 14 | 6.1 | 11.3 | 0.00 | 0.00 | 0.00 | 55 | 1010.0 |
| 20260505213003 | 64 | 355 | 5.2 | 11.3 | 0.00 | 0.00 | 0.00 | 55 | 1010.0 |
| 20260505212503 | 65 | 352 | 4.3 | 11.3 | 0.00 | 0.00 | 0.00 | 55 | 1010.0 |
| 20260505212003 | 65 | 348 | 4.3 | 9.6 | 0.00 | 0.00 | 0.00 | 55 | 1010.0 |
| 20260505211503 | 64 | 338 | 6.1 | 11.3 | 0.00 | 0.00 | 0.00 | 55 | 1010.1 |
| 20260505211024 | 65 | 340 | 6.1 | 11.3 | 0.00 | 0.00 | 0.00 | 54 | 1010.0 |
| 20260505210503 | 66 | 347 | 5.2 | 13.0 | 0.00 | 0.00 | 0.00 | 54 | 1009.9 |
| 20260505210003 | 65 | 352 | 6.1 | 13.9 | 0.00 | 0.00 | 0.00 | 54 | 1009.7 |
| 20260505205503 | 66 | 348 | 7.0 | 13.9 | 0.00 | 0.00 | 0.00 | 53 | 1009.6 |
| 20260505205003 | 65 | 341 | 7.8 | 13.0 | 0.00 | 0.00 | 0.00 | 54 | 1010.0 |
| 20260505204524 | 66 | 342 | 7.8 | 13.9 | 0.00 | 0.00 | 0.00 | 53 | 1010.0 |
| 20260505204003 | 66 | 352 | 7.0 | 13.9 | 0.00 | 0.00 | 0.00 | 53 | 1010.1 |
| 20260505203503 | 66 | 348 | 6.1 | 13.0 | 0.00 | 0.00 | 0.00 | 53 | 1010.0 |
| 20260505203003 | 66 | 345 | 7.0 | 13.0 | 0.00 | 0.00 | 0.00 | 53 | 1009.9 |
| 20260505202503 | 67 | 7 | 7.0 | 20.9 | 0.00 | 0.00 | 0.00 | 52 | 1009.8 |
| 20260505202003 | 67 | 9 | 7.8 | 20.9 | 0.00 | 0.00 | 0.00 | 52 | 1009.7 |
| 20260505201503 | 67 | 360 | 7.0 | 15.6 | 0.00 | 0.00 | 0.00 | 50 | 1009.5 |
| 20260505201003 | 67 | 9 | 7.0 | 15.6 | 0.00 | 0.00 | 0.00 | 51 | 1009.3 |
| 20260505200524 | 67 | 360 | 6.1 | 14.8 | 0.00 | 0.00 | 0.00 | 49 | 1009.2 |
| 20260505200003 | 67 | 346 | 6.1 | 14.8 | 0.00 | 0.00 | 0.00 | 49 | 1009.2 |
| 20260505195524 | 68 | 348 | 6.1 | 13.9 | 0.00 | 0.00 | 0.00 | 48 | 1009.5 |
| 20260505195003 | 68 | 343 | 7.0 | 13.0 | 0.00 | 0.00 | 0.00 | 48 | 1009.4 |
| 20260505194503 | 68 | 343 | 6.1 | 13.0 | 0.00 | 0.00 | 0.00 | 47 | 1009.4 |
| 20260505194003 | 67 | 345 | 5.2 | 12.2 | 0.00 | 0.00 | 0.00 | 48 | 1009.5 |
| 20260505193503 | 67 | 347 | 5.2 | 11.3 | 0.00 | 0.00 | 0.00 | 47 | 1009.6 |
| 20260505193003 | 67 | 345 | 6.1 | 13.0 | 0.00 | 0.00 | 0.00 | 49 | 1009.4 |
| 20260505192503 | 67 | 341 | 7.8 | 14.8 | 0.00 | 0.00 | 0.00 | 48 | 1009.4 |
| 20260505192003 | 66 | 346 | 8.7 | 14.8 | 0.00 | 0.00 | 0.00 | 48 | 1009.1 |
| 20260505191503 | 66 | 350 | 7.8 | 14.8 | 0.00 | 0.00 | 0.00 | 49 | 1008.9 |
| 20260505191024 | 66 | 345 | 7.8 | 14.8 | 0.00 | 0.00 | 0.00 | 50 | 1009.0 |
| 20260505190503 | 66 | 347 | 8.7 | 14.8 | 0.00 | 0.00 | 0.00 | 49 | 1009.1 |
| 20260505190003 | 66 | 348 | 7.8 | 14.8 | 0.00 | 0.00 | 0.00 | 50 | 1009.0 |
| 20260505185503 | 66 | 349 | 7.8 | 13.9 | 0.00 | 0.00 | 0.00 | 49 | 1009.0 |
| 20260505185003 | 66 | 345 | 7.0 | 13.9 | 0.00 | 0.00 | 0.00 | 49 | 1009.5 |
| 20260505184503 | 67 | 335 | 6.1 | 13.0 | 0.00 | 0.00 | 0.00 | 49 | 1009.4 |
| 20260505184024 | 67 | 342 | 6.1 | 13.0 | 0.00 | 0.00 | 0.00 | 50 | 1009.4 |
| 20260505183503 | 66 | 349 | 7.0 | 14.8 | 0.00 | 0.00 | 0.00 | 50 | 1009.8 |
| 20260505183003 | 67 | 344 | 7.0 | 14.8 | 0.00 | 0.00 | 0.00 | 49 | 1009.9 |
| 20260505182503 | 66 | 351 | 7.0 | 13.0 | 0.00 | 0.00 | 0.00 | 49 | 1010.0 |
| 20260505182003 | 67 | 2 | 5.2 | 11.3 | 0.00 | 0.00 | 0.00 | 49 | 1010.0 |
| 20260505181503 | 67 | 351 | 5.2 | 13.0 | 0.00 | 0.00 | 0.00 | 49 | 1010.2 |
| 20260505181003 | 66 | 346 | 6.1 | 13.0 | 0.00 | 0.00 | 0.00 | 50 | 1010.3 |
| 20260505180503 | 67 | 344 | 7.0 | 13.9 | 0.00 | 0.00 | 0.00 | 50 | 1010.2 |
| 20260505180003 | 67 | 350 | 7.0 | 13.9 | 0.00 | 0.00 | 0.00 | 50 | 1009.8 |
| 20260505175524 | 67 | 355 | 6.1 | 12.2 | 0.00 | 0.00 | 0.00 | 50 | 1009.9 |
| 20260505175003 | 68 | 346 | 7.0 | 15.6 | 0.00 | 0.00 | 0.00 | 49 | 1009.7 |
| 20260505174503 | 68 | 350 | 6.1 | 15.6 | 0.00 | 0.00 | 0.00 | 49 | 1010.2 |
| 20260505174024 | 67 | 3 | 5.2 | 12.2 | 0.00 | 0.00 | 0.00 | 51 | 1009.6 |
| 20260505173524 | 66 | 3 | 5.2 | 12.2 | 0.00 | 0.00 | 0.00 | 52 | 1009.5 |
| 20260505173003 | 66 | 353 | 6.1 | 13.9 | 0.00 | 0.00 | 0.00 | 52 | 1009.2 |
| 20260505172524 | 66 | 354 | 6.1 | 13.9 | 0.00 | 0.00 | 0.00 | 54 | 1008.9 |
| 20260505172003 | 66 | 2 | 7.0 | 16.5 | 0.00 | 0.00 | 0.00 | 54 | 1008.6 |
| 20260505171503 | 66 | 350 | 7.8 | 16.5 | 0.00 | 0.00 | 0.00 | 55 | 1008.7 |
| 20260505171003 | 65 | 345 | 7.8 | 16.5 | 0.00 | 0.00 | 0.00 | 54 | 1008.9 |
| 20260505170524 | 66 | 351 | 7.0 | 16.5 | 0.00 | 0.00 | 0.00 | 54 | 1008.7 |
| 20260505170003 | 66 | 342 | 7.0 | 14.8 | 0.00 | 0.00 | 0.00 | 55 | 1009.1 |
| 20260505165503 | 65 | 339 | 8.7 | 14.8 | 0.00 | 0.00 | 0.00 | 55 | 1009.0 |
| 20260505165003 | 66 | 344 | 9.6 | 19.1 | 0.00 | 0.00 | 0.00 | 56 | 1009.0 |
| 20260505164503 | 66 | 343 | 8.7 | 19.1 | 0.00 | 0.00 | 0.00 | 56 | 1008.8 |
| 20260505164003 | 67 | 346 | 7.0 | 14.8 | 0.00 | 0.00 | 0.00 | 55 | 1008.6 |
| 20260505163524 | 67 | 347 | 7.0 | 13.9 | 0.00 | 0.00 | 0.00 | 56 | 1008.6 |
| 20260505163024 | 66 | 340 | 7.0 | 13.9 | 0.00 | 0.00 | 0.00 | 58 | 1008.6 |
| 20260505162503 | 66 | 343 | 7.0 | 15.6 | 0.00 | 0.00 | 0.00 | 58 | 1008.4 |
| 20260505162003 | 66 | 349 | 7.8 | 15.6 | 0.00 | 0.00 | 0.00 | 59 | 1008.1 |
| 20260505161503 | 66 | 351 | 7.0 | 13.9 | 0.00 | 0.00 | 0.00 | 59 | 1007.9 |
| 20260505161003 | 66 | 348 | 7.0 | 14.8 | 0.00 | 0.00 | 0.00 | 61 | 1007.8 |
| 20260505160503 | 66 | 345 | 7.0 | 14.8 | 0.00 | 0.00 | 0.00 | 61 | 1007.7 |
| 20260505153024 | 68 | 338 | 8.7 | 13.9 | 0.00 | 0.00 | 0.00 | 62 | 1007.0 |
| 20260505152503 | 68 | 335 | 8.7 | 13.9 | 0.00 | 0.00 | 0.00 | 63 | 1006.8 |
| 20260505152024 | 68 | 334 | 8.7 | 13.9 | 0.00 | 0.00 | 0.00 | 64 | 1006.7 |
| 20260505151503 | 69 | 332 | 9.6 | 16.5 | 0.00 | 0.00 | 0.00 | 64 | 1006.6 |
| 20260505151003 | 69 | 333 | 9.6 | 16.5 | 0.00 | 0.00 | 0.00 | 63 | 1006.2 |
| 20260505150503 | 69 | 336 | 8.7 | 14.8 | 0.00 | 0.00 | 0.00 | 64 | 1006.1 |
| 20260505140503 | 68 | 342 | 7.8 | 14.8 | 0.00 | 0.00 | 0.00 | 65 | 1005.7 |
| 20260505125003 | 71 | 299 | 4.3 | 9.6 | 0.00 | 0.00 | 0.00 | 30 | 1003.4 |
| 20260505124524 | 70 | 289 | 3.5 | 7.8 | 0.00 | 0.00 | 0.00 | 30 | 1003.5 |
| 20260505124003 | 70 | 285 | 2.6 | 7.8 | 0.00 | 0.00 | 0.00 | 31 | 1003.3 |
| 20260505123503 | 70 | 284 | 2.6 | 7.8 | 0.00 | 0.00 | 0.00 | 31 | 1003.4 |
| 20260505123003 | 70 | 286 | 2.6 | 7.0 | 0.00 | 0.00 | 0.00 | 30 | 1003.0 |
| 20260505122503 | 70 | 288 | 2.6 | 7.0 | 0.00 | 0.00 | 0.00 | 31 | 1003.0 |
| 20260505122003 | 70 | 276 | 2.6 | 7.0 | 0.00 | 0.00 | 0.00 | 30 | 1002.8 |
| 20260505121503 | 70 | 244 | 1.7 | 7.0 | 0.00 | 0.00 | 0.00 | 30 | 1002.7 |
| 20260505121003 | 70 | 229 | 1.7 | 7.0 | 0.00 | 0.00 | 0.00 | 30 | 1002.7 |
| 20260505120503 | 70 | 228 | 1.7 | 6.1 | 0.00 | 0.00 | 0.00 | 30 | 1002.6 |
| 20260505120003 | 70 | 224 | 0.9 | 6.1 | 0.00 | 0.00 | 0.00 | 30 | 1002.5 |
| 20260505115503 | 71 | 222 | 0.9 | 5.2 | 0.00 | 0.00 | 0.00 | 30 | 1002.6 |
| 20260505115003 | 71 | 235 | 0.9 | 5.2 | 0.00 | 0.00 | 0.00 | 30 | 1002.5 |
| 20260505114503 | 71 | 238 | 0.9 | 6.1 | 0.00 | 0.00 | 0.00 | 30 | 1002.4 |
| 20260505114003 | 71 | 223 | 0.9 | 6.1 | 0.00 | 0.00 | 0.00 | 29 | 1002.4 |
| 20260505113503 | 72 | 223 | 1.7 | 5.2 | 0.00 | 0.00 | 0.00 | 29 | 1002.3 |
| 20260505113024 | 72 | 237 | 1.7 | 8.7 | 0.00 | 0.00 | 0.00 | 29 | 1002.2 |
| 20260505112503 | 72 | 231 | 2.6 | 8.7 | 0.00 | 0.00 | 0.00 | 29 | 1002.2 |
| 20260505112003 | 72 | 215 | 3.5 | 7.8 | 0.00 | 0.00 | 0.00 | 29 | 1001.9 |
| 20260505111503 | 72 | 210 | 3.5 | 7.8 | 0.00 | 0.00 | 0.00 | 29 | 1001.9 |
| 20260505111003 | 72 | 208 | 2.6 | 7.8 | 0.00 | 0.00 | 0.00 | 29 | 1001.8 |
| 20260505110524 | 72 | 222 | 2.6 | 7.0 | 0.00 | 0.00 | 0.00 | 29 | 1001.8 |
| 20260505102003 | 73 | 207 | 2.6 | 7.8 | 0.00 | 0.00 | 0.00 | 27 | 1001.5 |
| 20260505101503 | 73 | 202 | 3.5 | 7.8 | 0.00 | 0.00 | 0.00 | 26 | 1001.4 |
| 20260505101024 | 73 | 204 | 3.5 | 7.8 | 0.00 | 0.00 | 0.00 | 26 | 1001.4 |
| 20260505100503 | 73 | 206 | 3.5 | 7.8 | 0.00 | 0.00 | 0.00 | 26 | 1001.5 |
| 20260505100003 | 73 | 204 | 3.5 | 7.8 | 0.00 | 0.00 | 0.00 | 27 | 1001.4 |
| 20260505095503 | 73 | 204 | 3.5 | 7.8 | 0.00 | 0.00 | 0.00 | 27 | 1001.4 |
| 20260505095003 | 73 | 201 | 3.5 | 7.8 | 0.00 | 0.00 | 0.00 | 27 | 1001.4 |
| 20260505094503 | 73 | 201 | 3.5 | 7.8 | 0.00 | 0.00 | 0.00 | 27 | 1001.3 |
| 20260505094003 | 73 | 199 | 4.3 | 7.8 | 0.00 | 0.00 | 0.00 | 27 | 1001.3 |
| 20260505093524 | 73 | 199 | 3.5 | 7.8 | 0.00 | 0.00 | 0.00 | 27 | 1001.3 |
| 20260505093003 | 73 | 197 | 3.5 | 7.8 | 0.00 | 0.00 | 0.00 | 27 | 1001.2 |
| 20260505092503 | 73 | 196 | 3.5 | 7.8 | 0.00 | 0.00 | 0.00 | 27 | 1001.0 |
| 20260505092003 | 73 | 197 | 4.3 | 9.6 | 0.00 | 0.00 | 0.00 | 27 | 1001.1 |
| 20260505091503 | 73 | 198 | 4.3 | 9.6 | 0.00 | 0.00 | 0.00 | 27 | 1001.1 |
| 20260505091003 | 73 | 199 | 3.5 | 8.7 | 0.00 | 0.00 | 0.00 | 27 | 1001.2 |
| 20260505090503 | 73 | 199 | 3.5 | 8.7 | 0.00 | 0.00 | 0.00 | 27 | 1001.3 |
| 20260505090003 | 73 | 199 | 3.5 | 10.4 | 0.00 | 0.00 | 0.00 | 27 | 1001.2 |
| 20260505085503 | 73 | 204 | 3.5 | 10.4 | 0.00 | 0.00 | 0.00 | 27 | 1001.3 |
| 20260505085003 | 73 | 201 | 4.3 | 10.4 | 0.00 | 0.00 | 0.00 | 28 | 1001.3 |
| 20260505084503 | 73 | 193 | 4.3 | 9.6 | 0.00 | 0.00 | 0.00 | 28 | 1001.4 |
| 20260505084003 | 73 | 192 | 3.5 | 8.7 | 0.00 | 0.00 | 0.00 | 28 | 1001.4 |
| 20260505083503 | 73 | 194 | 3.5 | 6.1 | 0.00 | 0.00 | 0.00 | 28 | 1001.3 |
| 20260505083003 | 74 | 196 | 2.6 | 7.0 | 0.00 | 0.00 | 0.00 | 28 | 1001.5 |
| 20260505082524 | 74 | 198 | 2.6 | 7.0 | 0.00 | 0.00 | 0.00 | 28 | 1001.4 |
| 20260505082003 | 74 | 198 | 1.7 | 5.2 | 0.00 | 0.00 | 0.00 | 28 | 1001.5 |
| 20260505081503 | 74 | 191 | 1.7 | 5.2 | 0.00 | 0.00 | 0.00 | 28 | 1001.6 |
| 20260505081003 | 74 | 194 | 2.6 | 7.8 | 0.00 | 0.00 | 0.00 | 28 | 1001.5 |
| 20260505080503 | 74 | 197 | 2.6 | 7.8 | 0.00 | 0.00 | 0.00 | 29 | 1001.7 |
| 20260505080003 | 74 | 195 | 3.5 | 7.0 | 0.00 | 0.00 | 0.00 | 29 | 1001.7 |
| 20260505075503 | 74 | 194 | 3.5 | 7.0 | 0.00 | 0.00 | 0.00 | 29 | 1001.7 |
| 20260505075003 | 74 | 193 | 2.6 | 6.1 | 0.00 | 0.00 | 0.00 | 29 | 1001.7 |
| 20260505074503 | 74 | 197 | 2.6 | 6.1 | 0.00 | 0.00 | 0.00 | 28 | 1001.8 |
| 20260505074003 | 75 | 198 | 2.6 | 6.1 | 0.00 | 0.00 | 0.00 | 28 | 1001.9 |
| 20260505073524 | 75 | 198 | 3.5 | 6.1 | 0.00 | 0.00 | 0.00 | 27 | 1001.9 |
| 20260505073003 | 76 | 203 | 1.7 | 6.1 | 0.00 | 0.00 | 0.00 | 27 | 1002.0 |
| 20260505072503 | 76 | 209 | 1.7 | 4.3 | 0.00 | 0.00 | 0.00 | 26 | 1001.8 |
| 20260505072003 | 76 | 209 | 1.7 | 5.2 | 0.00 | 0.00 | 0.00 | 26 | 1001.9 |
| 20260505071503 | 77 | 202 | 3.5 | 7.8 | 0.00 | 0.00 | 0.00 | 26 | 1002.0 |
| 20260505071003 | 77 | 196 | 3.5 | 7.8 | 0.00 | 0.00 | 0.00 | 25 | 1002.1 |